Location: Unspecified
(0.0000°N, 0.0000°E)
Time: 18:19:05
(UTC+00:00)

Tiros 1 - Visible Passes

Search period start: 18 April 2019 00:00
Search period end: 28 April 2019 00:00
Orbit: 630 x 664 km, 48.4° (Epoch: 17 April)

Date Brightness Start Highest point End Pass type
(mag) Time Alt. Az. Time Alt. Az. Time Alt. Az.
19 Apr 9.1 19:07:59 10° S 19:09:18 14° SSE 19:09:18 14° SSE visible
20 Apr 7.8 19:32:30 10° SSW 19:35:57 42° S 19:35:57 42° S visible
21 Apr 8.8 18:18:21 10° SSE 18:21:08 15° SE 18:23:55 10° E visible
21 Apr 8.2 19:58:40 10° WSW 20:03:01 42° WNW 20:03:01 42° WNW visible
22 Apr 7.4 18:42:37 10° SSW 18:47:12 48° SE 18:51:49 10° NE visible
22 Apr 10.0 20:26:54 10° W 20:29:17 14° NW 20:30:31 13° NNW visible
23 Apr 8.1 19:08:38 10° SW 19:13:13 48° NW 19:17:49 10° NNE visible
24 Apr 10.1 19:36:31 10° W 19:39:18 15° NW 19:42:05 10° NNW visible
25 Apr 8.0 18:18:36 10° SW 18:23:14 55° NW 18:27:54 10° NNE visible
26 Apr 9.8 04:50:48 10° N 04:54:19 21° NE 04:57:48 10° E visible
26 Apr 10.0 18:46:12 10° W 18:49:19 17° NW 18:52:26 10° N visible
27 Apr 7.5 05:15:41 10° NNW 05:20:21 70° NE 05:25:00 10° SE visible
